Location: Noordwijk
(52.2400°N, 4.4500°E)
Time: 12:46:38
(UTC+00:00)

VELOX 1 - Pass Details

Date: 09 December 2022
Orbit: 621 x 635 km, 98.4° (Epoch: 29 January)

Event Time Altitude Azimuth Distance (km) Brightness Sun altitude
Exits shadow 18:29:48 45° 334° (NNW) 856 ? -26.2°
Maximum altitude 18:30:41 54° 291° (WNW) 760 ? -26.3°
Drops below altitude 10° 18:34:54 10° 214° (SW) 1,988 ? -27.0°
Sets 18:37:06 0° 210° (SSW) 2,890 ? -27.3°
